Notices

What's New in latest Release from April 7th, 2021:

- Updated Glossary, including Speed of Maximum Gust, and Total Hourly Precipitation

- Updated national and regional climate services offices contacts and prices information

- Addition of station inventory lists for 1981-2010, 1971-2000, and 1961-1990 Normals.

If you haven't already, please take our survey and provide feedback about our website: https://eccc.sondage-survey.ca/f/LanguageSelection.aspx?s=442ca660-fcf1-47c0-95a9-59707d6fd709

Hourly Data Report for June 12, 2004

SHERBROOKE A
QUEBEC

45°26'00.000" N
71°41'00.000" W
241.40 m
7028124
71610
YSC

Download Data

Hourly Data (June 2004)
Hourly Data Report for June 12, 2004
TIME
LST
Temp Definition
°C
Dew Point Definition
°C
Rel Hum Definition
%
Precip. Amount Definition
mm

Wind Dir Definition
10's deg

Wind Spd Definition
km/h
Visibility Definition
km
Stn Press Definition
kPa
Hmdx Definition


Wind Chill Definition


Weather Definition


00:00 2.7 0.1 83   13 4 15.0 98.84      
01:00 1.9 0.0 87   12 4 15.0 98.87      
02:00 1.2 -0.5 88   13 4 15.0 98.91      
03:00 0.2 -1.4 89     0 15.0 98.95      
04:00 -0.4 -2.1 88   9 6 15.0 99.00   -2  
05:00 1.6 0.2 90     0 15.0 99.08      
06:00 5.4 2.7 83   29 4 15.0 99.15      
07:00 9.3 4.4 71     0 24.1 99.15     Clear
08:00 11.8 3.6 57     0 24.1 99.15     Clear
09:00 14.1 3.9 50   9 7 24.1 99.19     Mainly Clear
10:00 15.1 4.0 47   24 6 24.1 99.20     Mainly Clear
11:00 15.6 5.1 50   29 4 24.1 99.21     Mainly Clear
12:00 16.9 4.2 43   28 9 24.1 99.19     Mainly Clear
13:00 17.8 5.5 44   28 13 24.1 99.18     Mainly Clear
14:00 18.8 6.0 43   29 11 24.1 99.15     Mainly Clear
15:00 19.1 5.5 41   32 15 24.1 99.14     Clear
16:00 18.5 4.9 41   2 7 24.1 99.07     Clear
17:00 18.7 5.4 42   34 6 15.0 99.12      
18:00 17.8 5.1 43   30 9 15.0 99.14      
19:00 16.2 6.2 51   26 6 15.0 99.18      
20:00 9.7 5.7 76     0 15.0 99.20      
21:00 7.8 4.8 81     0 15.0 99.21      
22:00 5.9 4.4 90   8 4 15.0 99.24      
23:00 5.1 3.6 90   10 4 15.0 99.30      

Notes on Data Quality.

Legend

  • E = Estimated
  • M = Missing
  • NA = Not Available*
  • [empty] = Indicates an unobserved value
Date modified: